Andover, NJ

2:00 AM EST on February 14, 2016 (GMT -0500)
Andover

Weather History for K12N - April, 2014

Change the Weather History Date:

Thursday, April 24, 2014

  Actual Average (KFWN) Record (KFWN)
Temperature  
Mean Temperature 47 °F -  
Max Temperature 57 °F 61 °F 88 °F (1960)
Min Temperature 37 °F 38 °F 25 °F (1989)
Degree Days  
Heating Degree Days 18    
Moisture  
Dew Point 17 °F    
Average Humidity 34    
Maximum Humidity 63    
Minimum Humidity 17    
Precipitation  
Precipitation 0.00 in - - ()
Sea Level Pressure  
Sea Level Pressure 29.96 in    
Wind  
Wind Speed 8 mph (NNW)    
Max Wind Speed 15 mph    
Max Gust Speed 28 mph    
Averages and records for this station are not official NWS values.
T = Trace of Precipitation, MM = Missing Value Source: NWS Daily Summary

Daily Weather History Graph

Daily Weather History Graph

Search for Another Location

Airport or City:

Trip Planner

Search our weather history database for the weather conditions in past years. The results will help you decide how hot, cold, wet, or windy it might be!

Date:

Astronomy

Apr. 24, 2014 Rise Set
Actual Time 6:06 AM EDT 7:48 PM EDT
Civil Twilight 5:37 AM EDT 8:17 PM EDT
Nautical Twilight 5:01 AM EDT 8:53 PM EDT
Astronomical Twilight 4:24 AM EDT 9:31 PM EDT
Moon 3:18 AM EDT (4/24) 2:58 PM EDT (4/24)
Length of Visible Light 14h 40m
Length of Day
13h 41m
Waning Crescent, 24% of the Moon is Illuminated
Apr 24
Waning Crescent
Apr 29
New
May 6
First Quarter
May 14
Full
May 21
Last Quarter

Hourly Weather History & Observations

Time (EDT) Temp. Windchill Dew Point Humidity Pressure Visibility Wind Dir Wind Speed Gust Speed Precip Events Conditions
12:54 AM 39.9 °F 34.5 °F 28.0 °F 63% 29.89 in - North 8.1 mph - N/A   Unknown
1:54 AM 39.0 °F 35.7 °F 27.0 °F 62% 29.89 in - North 4.6 mph - N/A   Unknown
2:54 AM 39.0 °F 35.7 °F 25.0 °F 57% 29.89 in - Variable 4.6 mph - N/A   Unknown
3:54 AM 37.9 °F 34.4 °F 23.0 °F 55% 29.90 in - NNW 4.6 mph - N/A   Unknown
4:54 AM 39.0 °F 35.7 °F 19.0 °F 45% 29.91 in - NNW 4.6 mph - N/A   Unknown
5:54 AM 37.0 °F 32.4 °F 18.0 °F 46% 29.93 in - North 5.8 mph - N/A   Unknown
6:54 AM 37.9 °F 31.5 °F 17.1 °F 43% 29.95 in - North 9.2 mph - N/A   Unknown
7:54 AM 41.0 °F 34.3 °F 18.0 °F 40% 29.98 in - NNW 11.5 mph 19.6 mph N/A   Unknown
8:54 AM 43.0 °F 37.2 °F 17.1 °F 35% 29.99 in - NW 10.4 mph 19.6 mph N/A   Unknown
9:54 AM 46.9 °F - 16.0 °F 29% 29.98 in - North 11.5 mph 21.9 mph N/A   Unknown
10:54 AM 48.0 °F - 14.0 °F 26% 29.98 in - NNW 13.8 mph 27.6 mph N/A   Unknown
11:54 AM 51.1 °F - 14.0 °F 23% 29.97 in - NW 11.5 mph 27.6 mph N/A   Unknown
12:54 PM 54.0 °F - 15.1 °F 22% 29.95 in - WNW 12.7 mph 25.3 mph N/A   Unknown
1:54 PM 55.0 °F - 16.0 °F 22% 29.94 in - NNW 13.8 mph 24.2 mph N/A   Unknown
2:54 PM 57.0 °F - 16.0 °F 20% 29.94 in - North 13.8 mph 25.3 mph N/A   Unknown
3:54 PM 57.0 °F - 12.9 °F 18% 29.93 in - NW 15.0 mph 21.9 mph N/A   Unknown
4:54 PM 57.9 °F - 12.9 °F 17% 29.93 in - NW 11.5 mph 20.7 mph N/A   Unknown
5:54 PM 57.0 °F - 12.0 °F 17% 29.95 in - North 9.2 mph 20.7 mph N/A   Unknown
6:54 PM 55.0 °F - 12.9 °F 19% 29.96 in - NNW 8.1 mph 19.6 mph N/A   Unknown
7:54 PM 52.0 °F - 14.0 °F 22% 29.99 in - North 6.9 mph - N/A   Unknown
8:54 PM 50.0 °F - 16.0 °F 26% 30.02 in - Calm Calm - N/A   Unknown
9:54 PM 48.0 °F - 16.0 °F 28% 30.04 in - North 5.8 mph - N/A   Unknown
10:54 PM 45.0 °F - 21.9 °F 40% 30.06 in - Calm Calm - N/A   Unknown
11:54 PM 46.0 °F 42.5 °F 18.0 °F 33% 30.05 in - North 6.9 mph - N/A   Unknown